Hourly Weather Chagarotar

Today, 19 June, Saturday

Time Temperature Precipitation Wind Pressure Humidity
00:00 +24°C° 0 mm 2 mps 759 mmHg 63%
01:00 +24°C° 0 mm 2 mps 759 mmHg 64%
02:00 +23°C° 0 mm 2 mps 759 mmHg 66%
03:00 +23°C° 0 mm 2 mps 759 mmHg 69%
04:00 +24°C° 0 mm 1 mps 759 mmHg 67%
05:00 +25°C° 0 mm 1 mps 759 mmHg 65%
06:00 +24°C° 0 mm 0 mps 759 mmHg 63%
07:00 +28°C° 0 mm 2 mps 759 mmHg 55%
08:00 +30°C° 0 mm 3 mps 759 mmHg 48%
09:00 +34°C° 0 mm 4 mps 758 mmHg 41%
10:00 +35°C° 0 mm 6 mps 758 mmHg 37%
11:00 +37°C° 0 mm 8 mps 758 mmHg 33%
12:00 +38°C° 0 mm 10 mps 757 mmHg 29%
13:00 +37°C° 0 mm 11 mps 757 mmHg 27%
14:00 +37°C° 0 mm 11 mps 757 mmHg 25%
15:00 +37°C° 0 mm 12 mps 757 mmHg 23%
16:00 +34°C° 0 mm 11 mps 757 mmHg 29%
17:00 +33°C° 0 mm 10 mps 757 mmHg 35%
18:00 +31°C° 0 mm 10 mps 757 mmHg 41%
19:00 +28°C° 0 mm 9 mps 757 mmHg 50%
20:00 +27°C° 0 mm 8 mps 757 mmHg 58%
21:00 +24°C° 0 mm 7 mps 757 mmHg 67%
22:00 +24°C° 0 mm 6 mps 757 mmHg 69%
23:00 +23°C° 0 mm 5 mps 757 mmHg 70%

Tomorrow, 20 June, Sunday

Time Temperature Precipitation Wind Pressure Humidity
00:00 +23°C° 0 mm 4 mps 757 mmHg 72%
01:00 +22°C° 0 mm 4 mps 757 mmHg 74%
02:00 +22°C° 0 mm 3 mps 756 mmHg 76%
03:00 +22°C° 0 mm 3 mps 756 mmHg 78%
04:00 +22°C° 0 mm 3 mps 756 mmHg 73%
05:00 +24°C° 0 mm 3 mps 756 mmHg 68%
06:00 +25°C° 0 mm 3 mps 756 mmHg 63%
07:00 +28°C° 0 mm 5 mps 756 mmHg 53%
08:00 +32°C° 0 mm 6 mps 756 mmHg 44%
09:00 +34°C° 0 mm 8 mps 755 mmHg 34%
10:00 +35°C° 0 mm 8 mps 755 mmHg 33%
11:00 +35°C° 0 mm 9 mps 755 mmHg 32%
12:00 +37°C° 0 mm 10 mps 755 mmHg 31%
13:00 +36°C° 0 mm 10 mps 755 mmHg 32%
14:00 +36°C° 0 mm 10 mps 755 mmHg 33%
15:00 +36°C° 0 mm 11 mps 755 mmHg 33%
16:00 +34°C° 0 mm 10 mps 755 mmHg 36%
17:00 +32°C° 0 mm 10 mps 755 mmHg 38%
18:00 +31°C° 0 mm 10 mps 755 mmHg 40%
19:00 +28°C° 0 mm 9 mps 755 mmHg 43%
20:00 +27°C° 0 mm 8 mps 756 mmHg 45%
21:00 +26°C° 0 mm 8 mps 756 mmHg 48%
22:00 +26°C° 0 mm 7 mps 756 mmHg 50%
23:00 +24°C° 0 mm 6 mps 756 mmHg 52%

Day after tomorrow, 21 June, Monday

Time Temperature Precipitation Wind Pressure Humidity
00:00 +25°C° 0 mm 5 mps 756 mmHg 54%
01:00 +23°C° 0 mm 4 mps 756 mmHg 56%
02:00 +23°C° 0 mm 4 mps 756 mmHg 58%
03:00 +22°C° 0 mm 3 mps 756 mmHg 61%
04:00 +24°C° 0 mm 3 mps 756 mmHg 59%
05:00 +25°C° 0 mm 4 mps 756 mmHg 57%
06:00 +26°C° 0 mm 4 mps 757 mmHg 56%
07:00 +29°C° 0 mm 5 mps 756 mmHg 47%
08:00 +32°C° 0 mm 6 mps 756 mmHg 38%
09:00 +35°C° 0 mm 8 mps 756 mmHg 29%
10:00 +37°C° 0 mm 9 mps 756 mmHg 25%
11:00 +38°C° 0 mm 10 mps 756 mmHg 21%
12:00 +39°C° 0 mm 12 mps 755 mmHg 18%
13:00 +39°C° 0 mm 12 mps 755 mmHg 18%
14:00 +38°C° 0 mm 12 mps 755 mmHg 19%
15:00 +38°C° 0 mm 13 mps 755 mmHg 20%
16:00 +36°C° 0 mm 12 mps 755 mmHg 23%
17:00 +33°C° 0 mm 12 mps 755 mmHg 27%
18:00 +32°C° 0 mm 11 mps 754 mmHg 30%
19:00 +29°C° 0 mm 10 mps 755 mmHg 34%
20:00 +28°C° 0 mm 9 mps 755 mmHg 37%
21:00 +27°C° 0 mm 8 mps 755 mmHg 40%
22:00 +26°C° 0 mm 7 mps 755 mmHg 43%
23:00 +24°C° 0 mm 6 mps 755 mmHg 46%

22 June, Tuesday

Time Temperature Precipitation Wind Pressure Humidity
00:00 +25°C° 0 mm 5 mps 755 mmHg 49%
01:00 +23°C° 0 mm 5 mps 756 mmHg 52%
02:00 +23°C° 0 mm 4 mps 756 mmHg 54%
03:00 +23°C° 0 mm 4 mps 756 mmHg 56%
04:00 +24°C° 0 mm 3 mps 756 mmHg 54%
05:00 +25°C° 0 mm 3 mps 756 mmHg 53%
06:00 +26°C° 0 mm 3 mps 756 mmHg 51%
07:00 +29°C° 0 mm 4 mps 756 mmHg 41%
08:00 +33°C° 0 mm 5 mps 756 mmHg 31%
09:00 +36°C° 0 mm 5 mps 756 mmHg 21%
10:00 +39°C° 0 mm 7 mps 756 mmHg 18%
11:00 +40°C° 0 mm 9 mps 755 mmHg 15%
12:00 +43°C° 0 mm 10 mps 755 mmHg 12%
13:00 +42°C° 0 mm 11 mps 755 mmHg 13%
14:00 +42°C° 0 mm 11 mps 755 mmHg 15%
15:00 +41°C° 0 mm 11 mps 755 mmHg 16%
16:00 +39°C° 0 mm 11 mps 755 mmHg 19%
17:00 +37°C° 0 mm 11 mps 755 mmHg 22%
18:00 +36°C° 0 mm 10 mps 755 mmHg 25%
19:00 +33°C° 0 mm 9 mps 755 mmHg 30%
20:00 +31°C° 0 mm 9 mps 755 mmHg 36%
21:00 +28°C° 0 mm 8 mps 756 mmHg 41%
22:00 +27°C° 0 mm 7 mps 756 mmHg 43%
23:00 +27°C° 0 mm 6 mps 756 mmHg 46%

23 June, Wednesday

Time Temperature Precipitation Wind Pressure Humidity
00:00 +26°C° 0 mm 5 mps 756 mmHg 48%
01:00 +26°C° 0 mm 5 mps 756 mmHg 50%
02:00 +25°C° 0 mm 4 mps 756 mmHg 52%
03:00 +25°C° 0 mm 4 mps 756 mmHg 55%
04:00 +26°C° 0 mm 4 mps 756 mmHg 53%
05:00 +27°C° 0 mm 4 mps 756 mmHg 51%
06:00 +27°C° 0 mm 4 mps 756 mmHg 49%
07:00 +30°C° 0 mm 6 mps 756 mmHg 40%
08:00 +34°C° 0 mm 7 mps 756 mmHg 30%
09:00 +38°C° 0 mm 9 mps 756 mmHg 21%
10:00 +39°C° 0 mm 10 mps 756 mmHg 19%
11:00 +41°C° 0 mm 11 mps 755 mmHg 17%
12:00 +42°C° 0 mm 13 mps 755 mmHg 15%
13:00 +42°C° 0 mm 13 mps 755 mmHg 16%
14:00 +41°C° 0 mm 13 mps 755 mmHg 16%
15:00 +39°C° 0 mm 13 mps 755 mmHg 17%
16:00 +37°C° 0 mm 12 mps 755 mmHg 22%
17:00 +34°C° 0 mm 11 mps 755 mmHg 27%
18:00 +32°C° 0 mm 10 mps 755 mmHg 32%
19:00 +31°C° 0 mm 9 mps 756 mmHg 37%
20:00 +28°C° 0 mm 8 mps 756 mmHg 42%
21:00 +26°C° 0 mm 7 mps 757 mmHg 46%
22:00 +26°C° 0 mm 6 mps 757 mmHg 51%
23:00 +25°C° 0 mm 5 mps 757 mmHg 56%

24 June, Thursday

Time Temperature Precipitation Wind Pressure Humidity
00:00 +23°C° 0 mm 4 mps 757 mmHg 61%
01:00 +24°C° 0 mm 3 mps 757 mmHg 63%
02:00 +23°C° 0 mm 2 mps 758 mmHg 65%
03:00 +23°C° 0 mm 2 mps 758 mmHg 67%
04:00 +24°C° 0 mm 1 mps 758 mmHg 62%
05:00 +25°C° 0 mm 1 mps 758 mmHg 57%
06:00 +26°C° 0 mm 1 mps 758 mmHg 51%
07:00 +29°C° 0 mm 2 mps 758 mmHg 43%
08:00 +32°C° 0 mm 2 mps 758 mmHg 34%
09:00 +36°C° 0 mm 3 mps 758 mmHg 25%
10:00 +37°C° 0 mm 4 mps 758 mmHg 22%
11:00 +40°C° 0 mm 5 mps 758 mmHg 19%
12:00 +42°C° 0 mm 6 mps 757 mmHg 16%
13:00 +43°C° 0 mm 7 mps 757 mmHg 15%
14:00 +41°C° 0 mm 8 mps 757 mmHg 14%
15:00 +42°C° 0 mm 9 mps 757 mmHg 13%
16:00 +40°C° 0 mm 9 mps 757 mmHg 17%
17:00 +38°C° 0 mm 8 mps 757 mmHg 20%
18:00 +35°C° 0 mm 8 mps 757 mmHg 24%
19:00 +33°C° 0 mm 6 mps 757 mmHg 31%
20:00 +29°C° 0 mm 5 mps 758 mmHg 37%
21:00 +27°C° 0 mm 4 mps 758 mmHg 44%
22:00 +26°C° 0 mm 4 mps 758 mmHg 50%
23:00 +25°C° 0 mm 3 mps 758 mmHg 56%
Show more

We Need Your Consent

Meteoprog and our Service Providers may store and access personal data such as cookies, device identifiers or other similar technologies on your device and process such data to personalise content and ads, as well as provide social media features and to analyse the traffic.

  • Store and/or access information on your device

    Cookies, device identifiers or other information can be stored or accessed on your device for the purposes indicated above.

  • Personalised ads and content, ad and content measurement, audience insights, and products development

    Ads and content can be personalised based on a profile. More data can be added to better personalise ads and content. Ad and content performance can be measured. Insights about the audience who saw the ads and content can be derived. Such data can be used to develop or improve user’s experience, systems and software.

By clicking ‘I Agree’ you will allow the use of indicated cookies, device identifiers, web beacons or other similar technologies. Your settings can be changed in the browser on your device.

For certain purposes, legitimate interests may be relied on, rather than consent. You can read more about this in our Privacy and Cookie Policy.